OBJECT AG, 59128

Orbit data source: Space-Track

You're viewing an Uncataloged Satellite

Recently launched and/or uncataloged satellites may have evolving metadata. Metadata may include but not limited to: Owner, Maufacturer, Bus, Motor, and Mission.

OBJECT AG, 59128 is a satellite in SSO that was launched on Mon, 04 Mar 2024 UTC via an FALCON 9 launch vehicle from the Air Force Western Test Range (AFWTR). Unknown objects in Earth's orbit typically refer to objects detected orbiting the Earth but have not yet been identified or cataloged. These objects could be anything from previously untracked satellites, spent rocket stages, debris from satellite collisions, or even natural meteoroids temporarily captured by Earth's gravity.

Loading next visibility...
Identifier
59128, 2024-043AG
Orbit
SSO
Country
Flag of TBDTBD
Related business
None
Manufacturer
Unknown
Mission
Operational Commercial Technology
Bus & Motor
Unknown
Mass
Unknown
Launch date (UTC)
2024-03-04 (2 years ago)
Launch vehicle
FALCON 9
Launch site
Air Force Western Test Range (AFWTR)
Object type
Unknown
Shape & HBR
Box + 2 Pan, 0.1 m
Radar Cross Section
0.080 m², Large (>1 m²)

Expand to show TLE details & history
Last TLE update: 13 hours ago

TLE from 13 hours ago
0 OBJECT AG
1 59128U 24043AG  25293.85124087  .00011094  00000-0  40699-3 0  9990
2 59128  97.5345  63.6717 0010834  13.6577 346.4953 15.28087555 90510
Epoch: 2025-10-20T20:25Z
TLE epoch observation values (Epoch: 2025-10-20T20:25:47.211Z)
Latitude
-0.00002°
Longitude
87.67737°
Altitude
477.4 km
Speed
7.631 km/s
True Right ascension
04h 14m 41s
True Declination
0° 00' 00"
Sunlit
Object was in full shadow at epoch
Visualization orbit readout
Latitude
Unknown
Longitude
Unknown
Altitude
Unknown
Speed
Unknown
Apparent Right ascension
Unknown
Apparent Declination
Unknown
Sunlit
N/A
Visualization observer readout
Local Sidereal Time
04:08:28
Azimuth
Unknown
Elevation
Unknown
Doppler factor
Unknown
Orbital elements
Apogee altitude
485.919 km
Perigee altitude
471.062 km
Semi-major axis
6,856.627 km
Eccentricity
0.00108
Inclination
97.5345°
RAAN
63.6717°
Arg. of periapsis
13.6577°
True anomaly
346.46627°
Mean anomaly
346.4953°
Eccentric anomaly
346.48079°
Mean motion
3.82276 °/min
Orbital period
94.17 mins
BSTAR
0.00040699
Loading maneuver chart data...
Computing Atmospheric mass density...
Loading historical data...
Loading historical data...
Loading historical data...
Loading historical data...
Loading historical data...
Loading historical data...
Loading historical data...

Documentation

Showing up to 5 results
|